Address 0x2cccaabbc96b535305329c536e7d9ae2290c872a

 
Ad
Ad
Txn Hash Method
Block
From
To
Value [Txn Fee]
0x5e7481f33e315335e0b7e7d7c531f027db0c61cc631d5dbb8d6f36429d206f18Mint203893702021-10-19 18:52:4633 mins ago0x2cccaabbc96b535305329c536e7d9ae2290c872aOUT 1inch Network: CHI Token0 MATIC0.0076826232
0x9d9e7067f455d740ebe8f6dbdd7e5b867d59ab1a2201748512d098cff9b2b6eaMint203879032021-10-19 17:57:561 hr 28 mins ago0x2cccaabbc96b535305329c536e7d9ae2290c872aOUT 1inch Network: CHI Token0 MATIC0.0076826232
0x2a2605ad93188e481edd857b3e6f788d1ccbba13f70115c2d557fa27951f8361Mint203878992021-10-19 17:57:481 hr 28 mins ago0x2cccaabbc96b535305329c536e7d9ae2290c872aOUT 1inch Network: CHI Token0 MATIC0.0076826232
0x8b751ef1d3fb8e6e3127da18c43fe4a2b423f1d3978416209f1bda6abe5dc33dMint203878962021-10-19 17:57:421 hr 28 mins ago0x2cccaabbc96b535305329c536e7d9ae2290c872aOUT 1inch Network: CHI Token0 MATIC0.0076826232
0x5338db7a8bf52fa5e0c9851a3fe3f1460e8548a4564ad651a047a4e225300052Mint203878932021-10-19 17:57:361 hr 28 mins ago0x2cccaabbc96b535305329c536e7d9ae2290c872aOUT 1inch Network: CHI Token0 MATIC0.0076826232
0xc962e806d111d44e0826866bb155cfe1292f5db16de23413d37742768af49f0eMint203878892021-10-19 17:57:271 hr 28 mins ago0x2cccaabbc96b535305329c536e7d9ae2290c872aOUT 1inch Network: CHI Token0 MATIC0.0076826232
0xaab5a0103f0fb90fd9e44330a0aea3cfce376d3d195a579660d69deb10cc4041Mint203878822021-10-19 17:57:131 hr 29 mins ago0x2cccaabbc96b535305329c536e7d9ae2290c872aOUT 1inch Network: CHI Token0 MATIC0.0076826232
0x35a873c3f7cbc91babe501243ceb3e35ffa01f2b2305f7d5a675780bea2c7424Mint203878802021-10-19 17:57:091 hr 29 mins ago0x2cccaabbc96b535305329c536e7d9ae2290c872aOUT 1inch Network: CHI Token0 MATIC0.0076826232
0x762ed0c66050240524e767022a839720728ad138adbda3d26daa2d6525ece054Mint203878762021-10-19 17:57:011 hr 29 mins ago0x2cccaabbc96b535305329c536e7d9ae2290c872aOUT 1inch Network: CHI Token0 MATIC0.0076826232
0xfeb6ad4b306a49d9593e3b5252b62d796c3fea5e972e4048a488e68f42102d51Mint203878712021-10-19 17:56:511 hr 29 mins ago0x2cccaabbc96b535305329c536e7d9ae2290c872aOUT 1inch Network: CHI Token0 MATIC0.0076826232
0xf680e1d56fc191891c5ab35a3023af01a9e229c748512bdd15d1ab0035d1e3e4Mint203878632021-10-19 17:56:351 hr 29 mins ago0x2cccaabbc96b535305329c536e7d9ae2290c872aOUT 1inch Network: CHI Token0 MATIC0.0076826232
0x39727dcb0be659b1865fa761c787d5d5e89ac0f1f63aace01ea96450c5c279acMint203878602021-10-19 17:56:291 hr 29 mins ago0x2cccaabbc96b535305329c536e7d9ae2290c872aOUT 1inch Network: CHI Token0 MATIC0.0076826232
0x56745c0bcfa8ee4799dcccae4193533b1458be308a0eb2483071b7b4b096e1a4Mint203878562021-10-19 17:56:211 hr 30 mins ago0x2cccaabbc96b535305329c536e7d9ae2290c872aOUT 1inch Network: CHI Token0 MATIC0.0076826232
0x8ed669ca30002047b492883bc17a035b2cb8a90d0fdd59e7682b60b1885c0be2Mint203878522021-10-19 17:56:131 hr 30 mins ago0x2cccaabbc96b535305329c536e7d9ae2290c872aOUT 1inch Network: CHI Token0 MATIC0.0076826232
0x472dec31ca7f5240c0c265d50821c40b08258034f77612bbcc0b3c5acb95e477Mint203871792021-10-19 17:30:501 hr 55 mins ago0x2cccaabbc96b535305329c536e7d9ae2290c872aOUT 1inch Network: CHI Token0 MATIC0.0076826232
0xe42220350e27cf0ad750c570a61a6e817ad340b85f187026c3ce73338b4faddeMint203780352021-10-19 11:18:028 hrs 8 mins ago0x2cccaabbc96b535305329c536e7d9ae2290c872aOUT 1inch Network: CHI Token0 MATIC0.0076826232
0x1eb4723cf240c004aff3e8e7236d7cce456245548ee39ea669f9203f8ff85505Mint203766362021-10-19 10:19:169 hrs 7 mins ago0x2cccaabbc96b535305329c536e7d9ae2290c872aOUT 1inch Network: CHI Token0 MATIC0.0076826232
0x2de8aa9a7068cd650454692ae77852c0d4355bb84feced867332e4e048c99cabMint203766322021-10-19 10:19:089 hrs 7 mins ago0x2cccaabbc96b535305329c536e7d9ae2290c872aOUT 1inch Network: CHI Token0 MATIC0.0076826232
0x7ed7dbc91aa1c4b87aa11fb50cc2ee43a4795165e0c64a03c501c788d4d67aa5Mint203766152021-10-19 10:18:349 hrs 7 mins ago0x2cccaabbc96b535305329c536e7d9ae2290c872aOUT 1inch Network: CHI Token0 MATIC0.0076826232
0x4f711c41e282c0ea6abf2560357a1b0177fe53b350d050388c328ea8ac33a5d6Mint203757612021-10-19 9:44:279 hrs 41 mins ago0x2cccaabbc96b535305329c536e7d9ae2290c872aOUT 1inch Network: CHI Token0 MATIC0.0076826232
0x0789e9a005f33d63faa1ac96621888686b78484dc625ca1f9cf65c7dc7448b9cMint203757052021-10-19 9:42:109 hrs 44 mins ago0x2cccaabbc96b535305329c536e7d9ae2290c872aOUT 1inch Network: CHI Token0 MATIC0.0076826232
0xad7d892d56adf1f61687dfa62f30559a961d0871636cad87612e22bb2e517c78Mint203706872021-10-19 6:17:2013 hrs 9 mins ago0x2cccaabbc96b535305329c536e7d9ae2290c872aOUT 1inch Network: CHI Token0 MATIC0.0076826232
0x75ab50e67855409459207bca0a5ebac664e260efb9828a583e16c06851a0145aMint203706832021-10-19 6:17:1213 hrs 9 mins ago0x2cccaabbc96b535305329c536e7d9ae2290c872aOUT 1inch Network: CHI Token0 MATIC0.0076826232
0x141f9dc77ecaafebc65ff879aefabc3737055337d8c9e274a88af2a33bb10abbMint203706812021-10-19 6:17:0813 hrs 9 mins ago0x2cccaabbc96b535305329c536e7d9ae2290c872aOUT 1inch Network: CHI Token0 MATIC0.0076826232
0xc82f1c7e28dce42de7d11b499c36703170791b40f2e7b6e6e876cc484ed46449Mint203706782021-10-19 6:17:0213 hrs 9 mins ago0x2cccaabbc96b535305329c536e7d9ae2290c872aOUT 1inch Network: CHI Token0 MATIC0.0076826232
[ Download CSV Export 
Latest 5 internal transactions
Parent Txn Hash Block From To Value
0x604e627324794f9229560150d835f9e156cd3e4939a2dbf40026fb06daace8b5203402802021-10-18 8:11:101 day 11 hrs ago 0x11431a89893025d2a48dca4eddc396f8c81171870x2cccaabbc96b535305329c536e7d9ae2290c872a5.215614888007086259 MATIC
0xd397a7f6294820e9f6e4bfbbccebbb306e4ab1f147be1d5ef6aa4d5877356e27203098762021-10-17 11:15:142 days 8 hrs ago 0x11431a89893025d2a48dca4eddc396f8c81171870x2cccaabbc96b535305329c536e7d9ae2290c872a5.617607971192330521 MATIC
0x9093daa131a08ecc9d01f8a7547dd358ad143e5ee3f8d2cefe8cb3a92662e53e200795292021-10-10 23:56:408 days 19 hrs ago Paraswap v5: Augustus Swapper0x2cccaabbc96b535305329c536e7d9ae2290c872a4.242836163635301882 MATIC
0x6318a804fda32d7e3d58d9f8887baf00f4851b16b53ea7889fc74cef171a0821200560532021-10-10 9:17:099 days 10 hrs ago Paraswap v5: Augustus Swapper0x2cccaabbc96b535305329c536e7d9ae2290c872a11.424034782456965252 MATIC
0xb8a28fcdd49af3b2853e3bec31fce227d45d51d60f52995ccce01d305113b284200347042021-10-09 20:12:399 days 23 hrs ago Paraswap v5: Augustus Swapper0x2cccaabbc96b535305329c536e7d9ae2290c872a4.724233218703423888 MATIC
[ Download CSV Export 
Loading

Contract Name:
0 MATIC

Compiler Version
0

Optimization Enabled:
0 MATIC

Other Settings:
-NA-
Block Transaction Gas Used Reward
Age Block Fee Address BC Fee Address Voting Power Jailed Incoming
Block Uncle Number Difficulty Gas Used Reward
Loading
Loading
Make sure to use the "Vote Down" button for any spammy posts, and the "Vote Up" for interesting conversations.